Location: Ocean City
(38.3360°N, 75.0850°W)
Time: 10:30:01
(UTC-04:00)

Max Valier Satellite - Pass Details

Date: 24 May 2019
Orbit: 491 x 508 km, 97.4° (Epoch: 23 June)

Event Time Altitude Azimuth Distance (km) Brightness Sun altitude
Exits shadow 21:51:29 36° 150° (SSE) 813 ? -16.5°
Maximum altitude 21:52:51 70° 77° (ENE) 536 ? -16.7°
Drops below altitude 10° 21:56:32 10° 353° (N) 1,718 ? -17.2°
Sets 21:58:38 0° 351° (N) 2,610 ? -17.5°
